sat.trackr.live / text

‹ back to catalog

STARLINK-36617

NORAD 67634 · 2026-020T

PAYLOAD ACTIVE UNKNOWN

§ Identity

Operator
Country
US
Launch date
2026-01-30
Launch site
AFETR
Launch vehicle
Mass (kg)
RCS (m²)

Purposes: comms

External: N2YO · Heavens-Above · Gunter

§ Orbital elements

Epoch: 2026-05-25T03:51:53.900928Z

Period
94.27 min
Inclination
43.0033°
Eccentricity
0.0001212
Mean motion
15.27592013 rev/d
Perigee alt
482.2 km
Apogee alt
483.8 km
Semi-major
6,861.2 km
B*
9.0698e-4
RAAN
68.3646°
Arg perigee
270.3684°
Mean anomaly
89.7029°
Rev number
1,780

§ Raw data

STARLINK-366171 67634U 26020T   26145.16104052  .00024789  00000+0  90698-3 0  99972 67634  43.0033  68.3646 0001212 270.3684  89.7029 15.27592013 17806

JSON: /api/v1/satellites/67634 · /tle

For live sub-satellite position, see the globe view (requires WebGL).

§ Visibility from observer

Set your observer location to see the next 7 days of passes ≥ 10°. The values pass through the URL so the page stays shareable.

No JS? Fill the form by hand. The geolocation button needs JavaScript.